2018-084J (43679 NORAD) Tracking and Keplerian Element Data

This shows tracking and keplerian element data for the satellite.

Feedback or suggestion? Click here.




ElementValue
Catalog43679
Name2018-084J
Epoch Orbit225
Epoch Day317.37541227
Epoch Year2018
RAAN67.8369
Inclination97.8406
Eccentricity0.000799
Argument of Perigee318.4526
Mean Anonmoly41.6122
Mean Motion14.91897541
Decay Rate-2.17E-06
L11 43679U 18084J 18317.37541227 -.00000217 00000-0 -15854-4 0 9990
L22 43679 97.8406 67.8369 0007990 318.4526 41.6122 14.91897541 2252

Live tracking and technical data element details for 2018-084J (NORAD 43679). 2018-084J can be tracked NOW for your location showing map with azimuth and elevation plus other details from your city location.

Track the satellite on the map from your city or location and see movement details for azimuth, elevation, latitude, longitude, range, height, and movement on the map or in text.







IsCatalogInMostPopularTable: catalog: 43679, numindb: 5
Update: records affected: 1



GetName: 43679 2018-084J

Hit Count: updated at: Thu, 15 Nov 2018 03:42:15 GMT